• In Uzbekistan
  • List of Countries
  • For 7 days
  • Water Temperature
  • Satellite Maps
  • Weather Map
  • Weather Widgets
  • user-avatar
    Login

    Hourly Weather Boa Vista

    Today, 23 August, Wednesday

    Time Temperature Precipitation Wind Pressure Humidity
    00:00 +27°C° 0.2 mm 1 mps 753 mmHg 74%
    01:00 +27°C° 0.2 mm 1 mps 753 mmHg 78%
    02:00 +26°C° 0 mm 1 mps 753 mmHg 82%
    03:00 +26°C° 0.1 mm 1 mps 753 mmHg 83%
    04:00 +25°C° 0.1 mm 1 mps 753 mmHg 84%
    05:00 +25°C° 0.1 mm 1 mps 753 mmHg 85%
    06:00 +26°C° 0 mm 1 mps 753 mmHg 82%
    07:00 +27°C° 0 mm 1 mps 754 mmHg 78%
    08:00 +28°C° 0 mm 1 mps 754 mmHg 74%
    09:00 +30°C° 0.1 mm 1 mps 754 mmHg 67%
    10:00 +32°C° 0.1 mm 1 mps 754 mmHg 60%
    11:00 +34°C° 0.1 mm 1 mps 753 mmHg 53%
    12:00 +34°C° 0 mm 1 mps 753 mmHg 51%
    13:00 +35°C° 0 mm 1 mps 752 mmHg 48%
    14:00 +35°C° 0 mm 1 mps 751 mmHg 46%
    15:00 +35°C° 0 mm 1 mps 751 mmHg 48%
    16:00 +35°C° 0 mm 1 mps 751 mmHg 50%
    17:00 +35°C° 0 mm 1 mps 750 mmHg 51%
    18:00 +33°C° 0 mm 1 mps 751 mmHg 56%
    19:00 +31°C° 0 mm 1 mps 751 mmHg 60%
    20:00 +30°C° 0 mm 1 mps 751 mmHg 64%
    21:00 +29°C° 0 mm 1 mps 752 mmHg 67%
    22:00 +29°C° 0 mm 1 mps 752 mmHg 69%
    23:00 +28°C° 0 mm 1 mps 753 mmHg 72%

    Tomorrow, 24 August, Thursday

    Time Temperature Precipitation Wind Pressure Humidity
    00:00 +28°C° 0 mm 1 mps 752 mmHg 74%
    01:00 +27°C° 0 mm 1 mps 752 mmHg 75%
    02:00 +27°C° 0 mm 1 mps 752 mmHg 77%
    03:00 +27°C° 0 mm 1 mps 752 mmHg 77%
    04:00 +27°C° 0 mm 1 mps 752 mmHg 78%
    05:00 +27°C° 0 mm 1 mps 752 mmHg 78%
    06:00 +28°C° 0 mm 1 mps 753 mmHg 75%
    07:00 +29°C° 0 mm 1 mps 753 mmHg 72%
    08:00 +30°C° 0 mm 1 mps 754 mmHg 69%
    09:00 +31°C° 0 mm 1 mps 754 mmHg 62%
    10:00 +33°C° 0 mm 1 mps 754 mmHg 56%
    11:00 +36°C° 0 mm 2 mps 754 mmHg 50%
    12:00 +36°C° 0.2 mm 2 mps 753 mmHg 52%
    13:00 +36°C° 0.2 mm 2 mps 752 mmHg 54%
    14:00 +36°C° 0.2 mm 2 mps 751 mmHg 55%
    15:00 +35°C° 0.2 mm 2 mps 751 mmHg 57%
    16:00 +35°C° 0.2 mm 2 mps 751 mmHg 58%
    17:00 +34°C° 0.2 mm 2 mps 750 mmHg 59%
    18:00 +32°C° 0 mm 2 mps 751 mmHg 64%
    19:00 +31°C° 0 mm 2 mps 752 mmHg 69%
    20:00 +29°C° 0 mm 2 mps 752 mmHg 73%
    21:00 +29°C° 0.1 mm 2 mps 752 mmHg 75%
    22:00 +28°C° 0.1 mm 1 mps 753 mmHg 76%
    23:00 +28°C° 0.1 mm 1 mps 753 mmHg 78%

    Day after tomorrow, 25 August, Friday

    Time Temperature Precipitation Wind Pressure Humidity
    00:00 +27°C° 0 mm 1 mps 753 mmHg 79%
    01:00 +27°C° 0 mm 1 mps 752 mmHg 80%
    02:00 +27°C° 0 mm 1 mps 752 mmHg 80%
    03:00 +26°C° 0 mm 1 mps 752 mmHg 82%
    04:00 +26°C° 0 mm 1 mps 752 mmHg 83%
    05:00 +26°C° 0 mm 1 mps 752 mmHg 85%
    06:00 +27°C° 0.5 mm 1 mps 753 mmHg 83%
    07:00 +28°C° 0.5 mm 1 mps 753 mmHg 81%
    08:00 +29°C° 0.5 mm 2 mps 754 mmHg 79%
    09:00 +30°C° 0.5 mm 2 mps 754 mmHg 74%
    10:00 +31°C° 0.5 mm 2 mps 754 mmHg 69%
    11:00 +34°C° 0.5 mm 2 mps 754 mmHg 64%
    12:00 +34°C° 0.6 mm 2 mps 753 mmHg 62%
    13:00 +34°C° 0.6 mm 2 mps 752 mmHg 60%
    14:00 +35°C° 0.6 mm 2 mps 751 mmHg 58%
    15:00 +35°C° 0.1 mm 2 mps 751 mmHg 58%
    16:00 +35°C° 0.1 mm 2 mps 751 mmHg 57%
    17:00 +35°C° 0.1 mm 2 mps 751 mmHg 57%
    18:00 +32°C° 0 mm 2 mps 751 mmHg 63%
    19:00 +31°C° 0 mm 2 mps 752 mmHg 68%
    20:00 +29°C° 0 mm 2 mps 753 mmHg 74%
    21:00 +29°C° 0.7 mm 2 mps 753 mmHg 77%
    22:00 +28°C° 0.7 mm 2 mps 753 mmHg 79%
    23:00 +28°C° 0.7 mm 1 mps 753 mmHg 82%

    26 August, Saturday

    Time Temperature Precipitation Wind Pressure Humidity
    00:00 +27°C° 0.3 mm 1 mps 753 mmHg 84%
    01:00 +27°C° 0.3 mm 1 mps 752 mmHg 86%
    02:00 +24°C° 0.3 mm 0 mps 752 mmHg 89%
    03:00 +26°C° 0 mm 1 mps 752 mmHg 89%
    04:00 +26°C° 0 mm 1 mps 752 mmHg 89%
    05:00 +26°C° 0 mm 1 mps 752 mmHg 89%
    06:00 +27°C° 0 mm 1 mps 753 mmHg 86%
    07:00 +28°C° 0 mm 1 mps 753 mmHg 82%
    08:00 +29°C° 0 mm 1 mps 754 mmHg 78%
    09:00 +30°C° 0.6 mm 1 mps 754 mmHg 73%
    10:00 +32°C° 0.6 mm 2 mps 754 mmHg 68%
    11:00 +34°C° 0.6 mm 2 mps 753 mmHg 63%
    12:00 +35°C° 0.4 mm 2 mps 752 mmHg 59%
    13:00 +35°C° 0.4 mm 2 mps 751 mmHg 55%
    14:00 +36°C° 0.4 mm 2 mps 750 mmHg 51%
    15:00 +36°C° 0 mm 2 mps 750 mmHg 53%
    16:00 +35°C° 0 mm 2 mps 750 mmHg 55%
    17:00 +35°C° 0 mm 2 mps 750 mmHg 57%
    18:00 +32°C° 0.2 mm 2 mps 751 mmHg 63%
    19:00 +31°C° 0.2 mm 2 mps 752 mmHg 70%
    20:00 +29°C° 0.2 mm 2 mps 752 mmHg 76%
    21:00 +29°C° 0.2 mm 2 mps 753 mmHg 79%
    22:00 +28°C° 0.2 mm 2 mps 753 mmHg 81%
    23:00 +28°C° 0.2 mm 1 mps 753 mmHg 84%

    27 August, Sunday

    Time Temperature Precipitation Wind Pressure Humidity
    00:00 +27°C° 0.1 mm 1 mps 752 mmHg 85%
    01:00 +27°C° 0.1 mm 1 mps 752 mmHg 86%
    02:00 +27°C° 0.1 mm 1 mps 751 mmHg 86%
    03:00 +26°C° 0 mm 1 mps 751 mmHg 87%
    04:00 +26°C° 0 mm 1 mps 752 mmHg 88%
    05:00 +26°C° 0 mm 1 mps 752 mmHg 89%
    06:00 +27°C° 0 mm 1 mps 753 mmHg 84%
    07:00 +28°C° 0 mm 1 mps 753 mmHg 80%
    08:00 +29°C° 0 mm 1 mps 754 mmHg 75%
    09:00 +31°C° 0.3 mm 2 mps 754 mmHg 70%
    10:00 +32°C° 0.3 mm 2 mps 753 mmHg 64%
    11:00 +35°C° 0.3 mm 2 mps 753 mmHg 59%
    12:00 +35°C° 0.2 mm 2 mps 752 mmHg 55%
    13:00 +36°C° 0.2 mm 2 mps 751 mmHg 52%
    14:00 +36°C° 0.2 mm 2 mps 751 mmHg 48%
    15:00 +36°C° 0 mm 2 mps 750 mmHg 51%
    16:00 +35°C° 0 mm 2 mps 750 mmHg 54%
    17:00 +34°C° 0 mm 1 mps 750 mmHg 57%
    18:00 +33°C° 0 mm 1 mps 750 mmHg 62%
    19:00 +31°C° 0 mm 1 mps 751 mmHg 66%
    20:00 +30°C° 0 mm 1 mps 751 mmHg 71%
    21:00 +29°C° 0.6 mm 1 mps 751 mmHg 75%
    22:00 +28°C° 0.6 mm 1 mps 752 mmHg 79%
    23:00 +28°C° 0.6 mm 1 mps 752 mmHg 82%

    28 August, Monday

    Time Temperature Precipitation Wind Pressure Humidity
    00:00 +27°C° 0.8 mm 1 mps 751 mmHg 84%
    01:00 +27°C° 0.8 mm 1 mps 751 mmHg 86%
    02:00 +27°C° 0.8 mm 1 mps 751 mmHg 88%
    03:00 +27°C° 0.4 mm 1 mps 751 mmHg 89%
    04:00 +26°C° 0.4 mm 1 mps 751 mmHg 90%
    05:00 +26°C° 0.4 mm 1 mps 752 mmHg 91%
    06:00 +27°C° 0.7 mm 1 mps 752 mmHg 88%
    07:00 +28°C° 0.7 mm 1 mps 753 mmHg 85%
    08:00 +29°C° 0.7 mm 2 mps 754 mmHg 82%
    09:00 +30°C° 0.9 mm 2 mps 754 mmHg 77%
    10:00 +31°C° 0.9 mm 3 mps 753 mmHg 72%
    11:00 +34°C° 0.9 mm 3 mps 753 mmHg 67%
    12:00 +35°C° 0.4 mm 3 mps 752 mmHg 61%
    13:00 +35°C° 0.4 mm 3 mps 751 mmHg 55%
    14:00 +36°C° 0.4 mm 3 mps 751 mmHg 50%
    15:00 +36°C° 0 mm 2 mps 750 mmHg 52%
    16:00 +36°C° 0 mm 2 mps 750 mmHg 54%
    17:00 +36°C° 0 mm 2 mps 750 mmHg 56%
    18:00 +33°C° 0 mm 1 mps 751 mmHg 61%
    19:00 +31°C° 0 mm 1 mps 751 mmHg 67%
    20:00 +29°C° 0 mm 1 mps 752 mmHg 72%
    21:00 +29°C° 0.1 mm 1 mps 752 mmHg 75%
    22:00 +28°C° 0.1 mm 1 mps 752 mmHg 78%
    23:00 +28°C° 0.1 mm 1 mps 752 mmHg 82%
    Show more